Location: Anciles
(42.5833°N, 0.5167°E)
Time: 08:28:20
(UTC+00:00)

Genesis I - Pass Details

Date: 10 December 2019
Orbit: 494 x 530 km, 64.5° (Epoch: 17 January)

Event Time Altitude Azimuth Distance (km) Brightness Sun altitude
Rises 18:27:22 0° 324° (NW) 2,637 7.1 -21.8°
Reaches altitude 10° 18:29:34 10° 323° (NW) 1,740 6.2 -22.2°
Maximum altitude 18:33:27 74° 238° (WSW) 533 3.2 -22.9°
Enters shadow 18:33:40 71° 205° (SSW) 541 3.2 -23.0°
